******************************************************************************* JPL/HORIZONS 10 Hygiea (A849 GA) 2026-Aug-10 04:03:43 Rec #: 10 (+COV) Soln.date: 2026-Jun-16_11:32:04 # obs: 5207 (1849-2026) IAU76/J2000 helio. ecliptic osc. elements (au, days, deg., period=Julian yrs): EPOCH= 2458286.5 ! 2018-Jun-17.00 (TDB) Residual RMS= .19672 EC= .112654977900141 QR= 2.786705885566622 TP= 2457740.1931742947 OM= 283.2130782677748 W= 312.1526533545334 IN= 3.831604174627114 A= 3.140498696856402 MA= 96.74817340659773 ADIST= 3.494291508146182 PER= 5.56552 N= .177094938 ANGMOM= .030290557 DAN= 2.8827 DDN= 3.35423 L= 235.4295289 B= -2.8396414 MOID= 1.77683997 TP= 2016-Dec-17.6931742947 Asteroid physical parameters (km, seconds, rotational period in hours): GM= 7. RAD= 203.56 ROTPER= 13.828 H= 5.65 G= .150 B-V= .696 ALBEDO= .0717 STYP= C ASTEROID comments: 1: soln ref.= JPL#129, OCC=0 2: source=ORB ******************************************************************************* ******************************************************************************* Ephemeris / WWW_USER Mon Aug 10 04:03:43 2026 Pasadena, USA / Horizons ******************************************************************************* Target body name: 10 Hygiea (A849 GA) {source: JPL#129} Center body name: Earth (399) {source: DE441} Center-site name: GEOCENTRIC ******************************************************************************* Start time : A.D. 1849-Apr-12 00:00:00.0000 UT Stop time : A.D. 1849-Apr-13 00:00:00.0000 UT Step-size : 1440 minutes ******************************************************************************* Target pole/equ : undefined Target radii : 203.56 km Center geodetic : 0.0, 0.0, -6378.137 {E-lon(deg),Lat(deg),Alt(km)} Center cylindric: 0.0, 0.0, 0.0 {E-lon(deg),Dxy(km),Dz(km)} Center pole/equ : ITRF93 {East-longitude positive} Center radii : 6378.137, 6378.137, 6356.752 km {Equator_a, b, pole_c} Target primary : Sun Vis. interferer : MOON (R_eq= 1737.400) km {source: DE441} Rel. light bend : Sun {source: DE441} Rel. lght bnd GM: 1.3271E+11 km^3/s^2 Small-body perts: Yes {source: SB441-N16} Atmos refraction: NO (AIRLESS) RA format : HMS Time format : CAL Calendar mode : Mixed Julian/Gregorian EOP file : eop.260807.p261103 EOP coverage : DATA-BASED 1962-JAN-20 TO 2026-AUG-07. PREDICTS-> 2026-NOV-02 Units conversion: 1 au= 149597870.700 km, c= 299792.458 km/s, 1 day= 86400.0 s Table cut-offs 1: Elevation (-90.0deg=NO ),Airmass (>38.000=NO), Daylight (NO ) Table cut-offs 2: Solar elongation ( 0.0,180.0=NO ),Local Hour Angle( 0.0=NO ) Table cut-offs 3: RA/DEC angular rate ( 0.0=NO ) ******************************************************************************* Initial IAU76/J2000 heliocentric ecliptic osculating elements (au, days, deg.): EPOCH= 2458286.5 ! 2018-Jun-17.00 (TDB) Residual RMS= .19672 EC= .112654977900141 QR= 2.786705885566622 TP= 2457740.1931742947 OM= 283.2130782677748 W= 312.1526533545334 IN= 3.831604174627114 Equivalent ICRF heliocentric cartesian coordinates (au, au/d): X= 3.098900886980702E+00 Y=-8.598476493147879E-01 Z=-1.668360930324855E-01 VX= 3.483873030254272E-03 VY= 7.921933227879652E-03 VZ= 3.828844848081958E-03 Asteroid physical parameters (km, seconds, rotational period in hours): GM= 7. RAD= 203.56 ROTPER= 13.828 H= 5.65 G= .150 B-V= .696 ALBEDO= .0717 STYP= C ******************************************************************************* Date__(UT)__HR:MN R.A._____(ICRF)_____DEC ********************************************** $$SOE 1849-Apr-12 00:00 12 21 25.82 -08 31 54.3 1849-Apr-13 00:00 12 20 45.83 -08 27 06.2 $$EOE ******************************************************************************* Column meaning: TIME Times PRIOR to 1962 are UT1, a mean-solar time closely related to the prior but now-deprecated GMT. Times AFTER 1962 are in UTC, the current civil or "wall-clock" time-scale. UTC is kept within 0.9 seconds of UT1 using integer leap-seconds for 1972 and later years. Conversion from the internal Barycentric Dynamical Time (TDB) of solar system dynamics to the non-uniform civil UT time-scale requested for output has not been determined for UTC times after the next July or January 1st. Therefore, the last known leap-second is used as a constant over future intervals. Time tags refer to the UT time-scale conversion from TDB on Earth regardless of observer location within the solar system, although clock rates may differ due to the local gravity field and no analog to "UT" may be defined for that location. Any 'b' symbol in the 1st-column denotes a B.C. date. First-column blank (" ") denotes an A.D. date. CALENDAR SYSTEM Mixed calendar mode was active such that calendar dates after AD 1582-Oct-15 (if any) are in the modern Gregorian system. Dates prior to 1582-Oct-5 (if any) are in the Julian calendar system, which is automatically extended for dates prior to its adoption on 45-Jan-1 BC. The Julian calendar is useful for matching historical dates. The Gregorian calendar more accurately corresponds to the Earth's orbital motion and seasons. A "Gregorian-only" calendar mode is available if such physical events are the primary interest. NOTE: "n.a." in output means quantity "not available" at the print-time. 'R.A._____(ICRF)_____DEC' = Astrometric right ascension and declination of the target center with respect to the observing site (coordinate origin) in the reference frame of the planetary ephemeris (ICRF). Compensated for down-leg light-time delay aberration. Units: RA in hours-minutes-seconds of time, HH MM SS.ff{ffff} DEC in degrees-minutes-seconds of arc, sDD MN SC.f{ffff} Computations by ... Solar System Dynamics Group, Horizons On-Line Ephemeris System 4800 Oak Grove Drive, Jet Propulsion Laboratory Pasadena, CA 91109 USA General site: https://ssd.jpl.nasa.gov/ Mailing list: https://ssd.jpl.nasa.gov/email_list.html System news : https://ssd.jpl.nasa.gov/horizons/news.html User Guide : https://ssd.jpl.nasa.gov/horizons/manual.html Connect : browser https://ssd.jpl.nasa.gov/horizons/app.html#/x API https://ssd-api.jpl.nasa.gov/doc/horizons.html command-line telnet ssd.jpl.nasa.gov 6775 e-mail/batch https://ssd.jpl.nasa.gov/ftp/ssd/horizons_batch.txt scripts https://ssd.jpl.nasa.gov/ftp/ssd/SCRIPTS Inquiries : Jon.D.Giorgini@jpl.nasa.gov ******************************************************************************* !$$SOF COMMAND = 'Hygiea' TABLE_TYPE = 'OBSERVER' START_TIME = '1849-04-12' STOP_TIME = '1849-04-13' STEP_SIZE = '1d' CENTER = '500@399' QUANTITIES = '1'